Date,TemperatureHighF,TemperatureAvgF,TemperatureLowF,DewpointHighF,DewpointAvgF,DewpointLowF,HumidityHigh,HumidityAvg,HumidityLow,PressureMaxIn,PressureMinIn,WindSpeedMaxMPH,WindSpeedAvgMPH,GustSpeedMaxMPH,PrecipitationSumIn
2014-5-2,84.3,71.9,50.0,73.0,65.9,50.0,97,71,50,29.90,29.81,13,6,24,0.00
2014-5-3,70.6,56.0,50.0,69.7,55.6,50.0,97,64,50,29.96,29.68,3,0,7,0.00
2014-5-4,50.0,50.0,50.0,50.0,50.0,50.0,50,50,50,29.89,28.83,0,0,0,0.00
2014-5-5,65.2,51.9,44.7,50.2,48.9,43.1,95,59,46,29.80,29.29,4,0,12,0.03
2014-5-6,61.9,51.6,38.1,46.5,40.8,32.7,97,69,40,29.97,29.78,16,2,16,0.00
2014-5-7,62.6,51.1,36.6,45.2,39.2,34.5,95,66,38,30.15,29.97,18,5,18,0.00
2014-5-8,58.7,53.1,49.6,53.2,49.4,45.2,98,87,71,30.15,30.05,17,7,17,0.00
2014-5-9,59.1,56.0,51.7,56.3,51.6,40.1,98,86,52,30.19,30.04,13,1,13,0.00
2014-5-10,64.0,58.6,54.1,61.9,56.1,52.3,96,92,83,30.04,29.76,29,11,29,0.00
2014-5-11,70.9,59.3,53.6,55.7,52.4,47.1,99,79,44,29.98,29.76,20,6,25,0.18
2014-5-12,70.3,60.1,49.8,55.9,50.6,43.8,94,73,48,30.08,29.98,22,4,22,0.00
2014-5-13,57.0,50.5,45.8,53.5,44.7,41.7,90,81,70,30.28,29.98,21,4,21,0.00
2014-5-14,65.3,54.9,44.9,54.6,48.8,42.2,92,81,61,30.29,30.23,12,2,12,0.00
2014-5-15,72.6,65.7,56.2,64.2,60.3,53.9,93,83,73,30.26,30.17,20,4,20,0.00
2014-5-16,71.6,65.4,60.0,62.0,60.6,58.0,94,85,71,30.18,29.96,24,6,24,0.03
2014-5-17,65.0,61.5,53.3,63.5,57.8,49.6,98,88,72,30.00,29.83,24,8,24,0.45
2014-5-18,67.6,56.9,45.4,54.8,48.1,43.3,95,74,52,30.04,29.96,15,1,15,0.00
2014-5-19,66.0,56.3,46.3,51.4,43.4,37.6,92,64,37,30.03,29.95,19,2,19,0.06
2014-5-20,67.0,58.3,49.6,54.0,49.2,46.1,95,74,50,29.98,29.90,16,2,16,0.06
2014-5-21,70.6,59.0,45.4,55.4,51.1,44.3,98,77,52,29.94,29.89,13,1,13,0.00
2014-5-22,64.3,55.7,50.4,55.2,52.3,49.6,98,89,66,29.92,29.81,10,1,10,0.06
2014-5-23,66.3,57.8,51.9,57.8,52.4,49.4,97,83,62,29.91,29.82,13,2,13,0.07
2014-5-24,64.1,56.1,51.3,52.0,49.8,47.8,93,80,61,30.02,29.86,18,3,18,0.01
2014-5-25,64.5,57.2,49.1,55.9,52.4,47.7,97,84,70,30.04,29.97,16,5,16,0.00
2014-5-26,65.7,60.6,54.4,59.5,57.2,53.3,97,89,77,30.01,29.78,19,8,19,0.01
2014-5-27,74.8,61.0,52.1,61.8,56.3,50.9,96,85,60,29.86,29.75,16,3,16,0.02
2014-5-28,52.4,49.7,47.3,51.6,48.7,45.2,100,97,92,30.14,29.81,22,4,22,0.16
2014-5-29,61.1,52.4,42.2,49.8,44.9,33.8,100,78,38,30.18,30.10,10,2,16,0.00
2014-5-30,63.4,53.2,40.0,53.2,47.0,39.0,98,81,56,30.12,29.96,15,3,15,0.01
2014-5-31,59.8,53.1,50.4,52.2,49.6,48.0,95,88,75,30.08,29.98,16,1,16,0.01
2014-6-1,71.6,59.5,43.6,53.5,46.1,38.3,95,66,32,30.27,30.19,13,2,14,0.00
2014-6-2,66.9,61.0,51.9,57.4,54.1,46.9,90,78,67,30.20,29.99,20,9,20,0.00
2014-6-3,72.8,63.2,54.3,60.0,54.0,46.7,92,73,51,30.00,29.86,15,2,15,0.00
2014-6-4,65.7,58.9,54.6,60.0,55.9,49.1,96,90,77,29.86,29.73,6,1,7,0.12
2014-6-5,62.6,59.4,56.4,62.0,58.7,55.6,100,98,96,29.74,29.52,19,2,19,0.53
2014-6-6,75.9,64.9,56.1,61.5,57.2,54.3,98,78,51,29.81,29.65,13,2,13,0.00
2014-6-7,75.3,65.4,53.3,63.7,58.3,51.5,96,79,62,29.88,29.81,15,4,15,0.00
2014-6-8,84.2,70.0,55.5,65.6,60.2,54.3,97,73,39,29.89,29.84,13,2,13,0.00
2014-6-9,69.0,65.8,64.0,63.2,62.1,60.5,94,88,78,29.95,29.86,14,7,14,0.00
2014-6-10,67.5,65.2,59.1,66.1,63.3,57.1,98,94,86,30.02,29.91,18,6,19,0.18
2014-6-11,69.2,62.0,56.1,59.9,56.3,50.3,94,82,65,30.12,30.02,16,3,16,0.00
2014-6-12,70.6,62.5,54.1,62.5,57.2,50.6,93,83,73,30.10,30.00,18,4,18,0.00
2014-6-13,69.8,64.8,60.2,68.9,63.8,58.2,100,97,86,30.01,29.72,13,6,17,0.92
2014-6-14,72.2,65.4,60.8,68.2,64.1,56.6,99,96,81,29.84,29.75,14,3,14,0.01
2014-6-15,80.5,67.0,55.0,62.8,57.4,53.0,94,74,45,29.99,29.83,12,1,12,0.00
2014-6-16,74.5,64.7,53.0,59.6,54.1,46.3,95,71,43,30.10,29.98,17,4,17,0.00
2014-6-17,69.3,66.3,61.5,65.7,62.6,57.3,99,88,77,30.05,29.86,21,10,21,0.00
2014-6-18,87.1,73.5,64.2,69.0,65.3,61.4,99,79,44,29.87,29.69,18,5,19,0.01
2014-6-19,73.3,68.8,59.6,67.7,64.6,53.6,95,87,74,29.92,29.85,16,4,16,0.05
2014-6-20,76.6,65.6,51.1,56.7,50.3,44.9,97,61,35,29.91,29.83,5,2,13,0.00
2014-6-21,69.9,60.7,49.4,55.7,51.2,47.4,96,73,50,29.92,29.84,12,4,17,0.00
2014-6-22,74.3,63.9,51.1,58.6,53.3,48.3,97,71,43,29.98,29.87,12,2,12,0.00
2014-6-23,75.3,65.4,51.4,60.1,54.3,48.0,97,71,39,30.13,29.98,10,3,13,0.00
2014-6-24,72.7,66.2,56.2,63.5,58.7,52.6,91,78,64,30.14,30.00,21,8,21,0.00
2014-6-25,72.5,70.1,66.7,70.9,67.2,61.8,95,91,80,30.00,29.84,21,12,22,0.00
2014-6-26,79.7,69.0,59.4,73.8,66.4,57.0,99,92,76,29.93,29.74,20,6,20,0.03
2014-6-27,73.8,64.2,53.0,59.2,53.5,46.2,97,71,41,30.15,29.93,17,2,17,0.00
2014-6-28,77.4,63.7,47.4,64.8,56.0,46.0,97,78,45,30.23,30.14,15,3,15,0.00
2014-6-29,76.0,67.3,55.5,65.1,61.3,54.0,97,82,63,30.22,30.09,18,6,18,0.00
2014-6-30,72.5,69.3,66.6,68.8,66.6,63.2,95,91,86,30.09,29.91,24,12,24,0.00
2014-7-1,73.2,70.6,68.5,70.8,68.9,67.0,97,94,91,29.92,29.81,23,12,23,0.00
2014-7-2,78.0,73.7,70.2,73.8,71.5,68.7,97,93,87,29.92,29.80,25,12,25,0.00
2014-7-3,79.4,74.9,72.0,75.3,72.8,71.1,99,93,82,29.95,29.86,21,9,21,0.00
2014-7-4,77.0,69.5,61.4,74.5,68.2,60.8,99,96,87,29.94,29.61,29,5,29,2.91
2014-7-5,79.8,68.8,57.4,63.0,56.1,46.1,98,69,33,29.97,29.66,19,4,19,0.12
2014-7-6,78.2,71.3,66.4,65.9,61.2,53.2,88,71,51,29.98,29.86,25,8,25,0.00
2014-7-7,72.8,69.8,67.4,68.8,66.6,63.9,94,90,86,29.88,29.72,27,14,27,0.00
2014-7-8,74.3,71.7,69.0,71.5,69.4,67.1,97,93,88,29.80,29.69,25,13,25,0.00
2014-7-9,75.2,71.7,69.5,70.5,68.9,66.5,98,91,84,29.90,29.68,24,11,24,0.00
2014-7-10,81.5,73.2,66.3,70.1,66.3,61.7,99,81,53,30.09,29.90,25,2,25,0.33
2014-7-11,81.8,70.8,64.2,67.3,63.9,60.5,98,81,52,30.17,30.08,11,1,11,0.00
2014-7-12,75.1,69.3,59.0,66.9,63.6,58.2,98,83,69,30.18,30.11,19,7,19,0.00
2014-7-13,75.2,72.3,69.0,70.8,68.9,66.1,94,89,79,30.11,29.90,25,13,25,0.00
2014-7-14,74.4,72.6,71.6,72.7,70.9,69.2,98,94,91,29.90,29.83,24,12,24,0.01
2014-7-15,76.2,74.4,72.6,74.2,73.2,71.7,98,96,93,29.85,29.74,24,14,24,0.00
2014-7-16,75.2,72.2,70.0,73.6,71.3,69.4,98,97,93,29.80,29.72,26,10,26,2.64
2014-7-17,79.0,71.3,66.0,69.7,65.9,60.3,99,84,57,30.02,29.79,15,3,15,0.01
2014-7-18,78.7,70.5,60.5,64.6,60.6,54.8,97,73,49,30.19,30.01,10,1,10,0.00
2014-7-19,76.2,67.6,57.9,66.9,60.1,56.5,98,78,54,30.22,30.16,10,1,10,0.00
2014-7-20,71.7,66.9,62.7,66.3,62.8,58.9,95,87,81,30.17,30.08,12,2,12,0.04
2014-7-21,75.7,67.0,61.5,66.6,62.7,59.9,98,87,62,30.14,30.06,13,2,13,0.06
2014-7-22,76.6,68.8,57.3,69.7,65.7,56.5,99,90,77,30.11,29.98,19,7,19,0.01
2014-7-23,75.4,72.5,70.4,71.1,69.4,66.9,96,90,84,29.98,29.75,26,13,26,0.00
2014-7-24,77.8,70.1,63.2,72.5,67.2,61.9,97,91,78,29.84,29.68,15,2,15,0.00
2014-7-25,78.8,69.7,59.3,65.3,60.3,52.2,98,75,41,29.95,29.83,15,3,15,0.00
2014-7-26,74.5,71.0,66.2,69.4,66.5,62.2,91,86,71,29.96,29.87,21,9,24,0.00
2014-7-27,75.1,72.2,69.7,70.9,68.3,65.7,96,88,76,29.87,29.65,22,9,22,0.04
2014-7-28,78.2,73.6,71.2,73.8,71.0,68.4,97,92,81,29.65,29.44,25,10,25,0.00
2014-7-29,73.8,70.2,64.1,68.7,63.6,60.9,92,80,69,29.90,29.51,19,6,19,0.00
2014-7-30,75.8,68.9,56.7,64.6,61.2,55.6,98,77,60,30.01,29.89,18,4,18,0.00
2014-7-31,77.7,72.0,64.4,67.8,65.0,61.0,90,79,65,30.13,30.00,18,6,18,0.00
2014-8-1,78.3,72.8,69.2,70.7,67.7,65.2,90,84,76,30.19,30.12,15,5,17,0.00
2014-8-2,69.4,64.2,60.3,65.9,62.3,59.1,98,94,85,30.19,30.04,14,1,14,0.61
2014-8-3,67.9,64.4,62.0,65.7,63.4,61.4,99,97,91,30.09,29.99,10,1,10,0.01
2014-8-4,73.9,69.7,65.1,70.2,67.7,64.5,99,94,84,30.00,29.97,24,7,24,0.01
2014-8-5,72.5,70.5,69.5,70.6,69.1,68.3,97,96,93,29.98,29.95,13,2,13,0.00
2014-9-20,67.7,59.4,40.9,58.7,51.8,39.8,96,77,69,30.33,30.13,21,5,21,0.00
2014-9-21,70.3,67.6,58.1,68.4,63.3,53.4,98,87,69,30.26,29.51,15,4,19,0.33
2014-9-22,69.3,68.9,65.2,68.4,68.0,63.4,97,97,94,29.62,29.56,10,0,10,0.00
2014-10-13,62.3,53.0,39.1,57.0,48.0,38.3,99,84,62,30.33,30.24,12,4,16,0.00
2014-10-14,68.9,65.6,60.8,64.1,62.0,57.2,94,88,82,30.24,30.13,14,7,20,0.00
2014-10-15,75.1,70.4,66.7,67.9,65.9,63.4,92,86,76,30.13,29.94,12,7,20,0.00
2014-10-16,74.0,68.5,62.1,70.2,66.7,60.7,98,94,88,29.93,29.64,9,4,24,3.28
2014-10-17,65.5,63.6,61.8,62.6,61.1,60.0,98,92,86,29.67,29.56,16,10,26,0.00
2014-10-18,67.2,63.4,58.4,63.0,60.0,52.6,96,89,76,29.65,29.46,15,8,22,0.00
2014-10-19,58.5,53.8,44.7,52.7,44.2,33.5,85,70,55,29.90,29.56,11,3,17,0.00
2014-10-20,54.7,46.4,37.9,47.0,37.6,29.8,90,72,54,30.05,29.90,23,4,23,0.00
2014-10-21,64.0,52.7,38.4,58.8,49.6,32.1,97,89,78,30.02,29.84,13,2,13,0.00
2014-10-22,63.3,56.7,53.3,58.0,55.6,52.5,98,96,83,29.90,29.65,31,4,31,0.31
2014-10-23,65.2,58.9,53.9,61.8,56.8,53.3,98,93,83,29.84,29.43,22,4,22,0.97
2014-10-24,56.8,54.5,49.2,56.2,53.7,48.7,98,97,91,29.64,29.49,14,3,15,0.05
2014-10-25,61.2,52.5,45.0,54.6,47.9,43.1,94,77,50,29.73,29.51,15,4,20,0.00
2014-10-26,50.0,50.0,50.0,50.0,50.0,50.0,50,50,50,29.67,28.51,0,0,0,0.00
2014-10-27,50.0,50.0,50.0,50.0,50.0,50.0,50,50,50,29.98,29.67,0,0,0,0.00
2014-10-28,50.0,50.0,50.0,50.0,50.0,50.0,50,50,50,30.10,29.91,0,0,0,0.00
2014-10-29,79.8,55.2,50.0,71.6,54.8,50.0,98,61,50,30.07,30.01,2,0,6,0.00